When you browse on this site, cookies collect data to enhance your experience and personalize the content and advertising you see.
Visit our Privacy Policy to learn more. By continuing to use the site, you agree to this use of cookies and data.
  • In Romania
  • List of Countries
  • For 7 days
  • Water Temperature
  • Satellite Maps
  • Weather Map
  • Weather Widgets
  • user-avatar
    Login

    Hourly Weather Azzano Decimo

    Today, 25 April, Thursday

    Time Temperature Precipitation Wind Pressure Humidity
    00:00 +15°C° 0 mm 2 mps 761 mmHg 95%
    01:00 +15°C° 0 mm 1 mps 761 mmHg 97%
    02:00 +15°C° 0 mm 2 mps 761 mmHg 97%
    03:00 +15°C° 0 mm 2 mps 762 mmHg 96%
    04:00 +15°C° 0 mm 2 mps 762 mmHg 96%
    05:00 +15°C° 0 mm 2 mps 762 mmHg 94%
    06:00 +15°C° 0 mm 2 mps 762 mmHg 93%
    07:00 +15°C° 0 mm 2 mps 762 mmHg 91%
    08:00 +16°C° 0 mm 2 mps 762 mmHg 88%
    09:00 +17°C° 0 mm 2 mps 762 mmHg 84%
    10:00 +18°C° 0 mm 2 mps 762 mmHg 80%
    11:00 +19°C° 0.1 mm 2 mps 762 mmHg 78%
    12:00 +19°C° 0.1 mm 2 mps 762 mmHg 76%
    13:00 +20°C° 0.1 mm 2 mps 762 mmHg 74%
    14:00 +20°C° 0.1 mm 2 mps 762 mmHg 74%
    15:00 +20°C° 0.1 mm 2 mps 762 mmHg 74%
    16:00 +20°C° 0.1 mm 2 mps 762 mmHg 74%
    17:00 +19°C° 0 mm 2 mps 762 mmHg 79%
    18:00 +19°C° 0 mm 1 mps 761 mmHg 85%
    19:00 +18°C° 0 mm 1 mps 761 mmHg 90%
    20:00 +16°C° 0 mm 1 mps 761 mmHg 91%
    21:00 +16°C° 0 mm 1 mps 762 mmHg 92%
    22:00 +16°C° 0 mm 1 mps 762 mmHg 94%
    23:00 +16°C° 0 mm 1 mps 762 mmHg 92%

    Tomorrow, 26 April, Friday

    Time Temperature Precipitation Wind Pressure Humidity
    00:00 +16°C° 0 mm 2 mps 761 mmHg 91%
    01:00 +16°C° 0 mm 2 mps 761 mmHg 90%
    02:00 +16°C° 0 mm 2 mps 761 mmHg 89%
    03:00 +15°C° 0 mm 2 mps 761 mmHg 89%
    04:00 +15°C° 0 mm 2 mps 760 mmHg 88%
    05:00 +14°C° 0.1 mm 3 mps 760 mmHg 88%
    06:00 +16°C° 0.1 mm 3 mps 760 mmHg 87%
    07:00 +16°C° 0.1 mm 3 mps 759 mmHg 87%
    08:00 +16°C° 0.2 mm 3 mps 759 mmHg 86%
    09:00 +17°C° 0.2 mm 3 mps 759 mmHg 85%
    10:00 +17°C° 0.2 mm 3 mps 759 mmHg 84%
    11:00 +18°C° 0.3 mm 3 mps 759 mmHg 81%
    12:00 +19°C° 0.3 mm 3 mps 759 mmHg 77%
    13:00 +20°C° 0.3 mm 3 mps 758 mmHg 74%
    14:00 +20°C° 1.7 mm 3 mps 758 mmHg 73%
    15:00 +20°C° 1.7 mm 4 mps 758 mmHg 72%
    16:00 +20°C° 1.7 mm 4 mps 758 mmHg 70%
    17:00 +18°C° 0.7 mm 4 mps 758 mmHg 75%
    18:00 +17°C° 0.7 mm 3 mps 759 mmHg 80%
    19:00 +16°C° 0.7 mm 2 mps 759 mmHg 86%
    20:00 +15°C° 0.5 mm 2 mps 759 mmHg 87%
    21:00 +14°C° 0.5 mm 2 mps 760 mmHg 88%
    22:00 +14°C° 0.5 mm 2 mps 760 mmHg 90%
    23:00 +13°C° 0.5 mm 2 mps 760 mmHg 90%

    Day after tomorrow, 27 April, Saturday

    Time Temperature Precipitation Wind Pressure Humidity
    00:00 +13°C° 0.5 mm 2 mps 760 mmHg 91%
    01:00 +12°C° 0.5 mm 2 mps 760 mmHg 92%
    02:00 +12°C° 0.6 mm 2 mps 761 mmHg 90%
    03:00 +12°C° 0.6 mm 2 mps 761 mmHg 89%
    04:00 +11°C° 0.6 mm 3 mps 761 mmHg 87%
    05:00 +12°C° 0.4 mm 2 mps 761 mmHg 84%
    06:00 +13°C° 0.4 mm 2 mps 761 mmHg 80%
    07:00 +13°C° 0.4 mm 2 mps 761 mmHg 77%
    08:00 +15°C° 0 mm 2 mps 761 mmHg 70%
    09:00 +16°C° 0 mm 1 mps 761 mmHg 62%
    10:00 +19°C° 0 mm 1 mps 761 mmHg 55%
    11:00 +19°C° 0 mm 1 mps 761 mmHg 53%
    12:00 +19°C° 0 mm 2 mps 761 mmHg 51%
    13:00 +20°C° 0 mm 2 mps 760 mmHg 49%
    14:00 +20°C° 0 mm 2 mps 760 mmHg 50%
    15:00 +20°C° 0 mm 2 mps 760 mmHg 51%
    16:00 +20°C° 0 mm 3 mps 759 mmHg 52%
    17:00 +18°C° 0 mm 2 mps 759 mmHg 58%
    18:00 +17°C° 0 mm 2 mps 760 mmHg 65%
    19:00 +16°C° 0 mm 2 mps 760 mmHg 71%
    20:00 +15°C° 0 mm 2 mps 760 mmHg 73%
    21:00 +14°C° 0 mm 2 mps 760 mmHg 75%
    22:00 +14°C° 0 mm 2 mps 760 mmHg 76%
    23:00 +13°C° 0 mm 1 mps 760 mmHg 78%

    28 April, Sunday

    Time Temperature Precipitation Wind Pressure Humidity
    00:00 +13°C° 0 mm 1 mps 760 mmHg 80%
    01:00 +12°C° 0 mm 1 mps 760 mmHg 81%
    02:00 +12°C° 0.2 mm 2 mps 760 mmHg 81%
    03:00 +12°C° 0.2 mm 2 mps 760 mmHg 81%
    04:00 +12°C° 0.2 mm 2 mps 760 mmHg 80%
    05:00 +11°C° 0.3 mm 3 mps 760 mmHg 79%
    06:00 +12°C° 0.3 mm 4 mps 760 mmHg 77%
    07:00 +12°C° 0.3 mm 5 mps 760 mmHg 75%
    08:00 +12°C° 1.4 mm 5 mps 760 mmHg 76%
    09:00 +11°C° 1.4 mm 4 mps 760 mmHg 76%
    10:00 +11°C° 1.4 mm 4 mps 760 mmHg 77%
    11:00 +10°C° 3.5 mm 4 mps 760 mmHg 79%
    12:00 +9°C° 3.5 mm 5 mps 760 mmHg 81%
    13:00 +8°C° 3.5 mm 5 mps 759 mmHg 84%
    14:00 +8°C° 2.8 mm 4 mps 759 mmHg 84%
    15:00 +8°C° 2.8 mm 4 mps 759 mmHg 84%
    16:00 +8°C° 2.8 mm 4 mps 759 mmHg 83%
    17:00 +8°C° 3.3 mm 4 mps 759 mmHg 85%
    18:00 +8°C° 3.3 mm 4 mps 759 mmHg 86%
    19:00 +8°C° 3.3 mm 4 mps 759 mmHg 87%
    20:00 +8°C° 4.4 mm 3 mps 760 mmHg 88%
    21:00 +8°C° 4.4 mm 3 mps 760 mmHg 89%
    22:00 +8°C° 4.4 mm 3 mps 760 mmHg 90%
    23:00 +8°C° 3.7 mm 3 mps 760 mmHg 90%

    29 April, Monday

    Time Temperature Precipitation Wind Pressure Humidity
    00:00 +8°C° 3.7 mm 2 mps 760 mmHg 91%
    01:00 +7°C° 3.7 mm 2 mps 760 mmHg 91%
    02:00 +7°C° 3.1 mm 2 mps 760 mmHg 91%
    03:00 +7°C° 3.1 mm 2 mps 760 mmHg 91%
    04:00 +7°C° 3.1 mm 2 mps 759 mmHg 92%
    05:00 +7°C° 2.7 mm 2 mps 759 mmHg 92%
    06:00 +8°C° 2.7 mm 1 mps 759 mmHg 93%
    07:00 +8°C° 2.7 mm 1 mps 759 mmHg 93%
    08:00 +8°C° 1.8 mm 2 mps 760 mmHg 92%
    09:00 +8°C° 1.8 mm 2 mps 760 mmHg 92%
    10:00 +8°C° 1.8 mm 2 mps 760 mmHg 91%
    11:00 +9°C° 1 mm 2 mps 760 mmHg 90%
    12:00 +9°C° 1 mm 3 mps 760 mmHg 89%
    13:00 +10°C° 1 mm 3 mps 760 mmHg 89%
    14:00 +11°C° 0.2 mm 3 mps 760 mmHg 87%
    15:00 +11°C° 0.2 mm 3 mps 759 mmHg 86%
    16:00 +12°C° 0.2 mm 3 mps 759 mmHg 85%
    17:00 +13°C° 0 mm 2 mps 759 mmHg 86%
    18:00 +12°C° 0 mm 2 mps 760 mmHg 88%
    19:00 +12°C° 0 mm 2 mps 760 mmHg 89%
    20:00 +10°C° 0 mm 2 mps 760 mmHg 88%
    21:00 +10°C° 0 mm 2 mps 761 mmHg 87%
    22:00 +9°C° 0 mm 2 mps 761 mmHg 86%
    23:00 +10°C° 0 mm 1 mps 761 mmHg 85%

    30 April, Tuesday

    Time Temperature Precipitation Wind Pressure Humidity
    00:00 +9°C° 0 mm 1 mps 761 mmHg 83%
    01:00 +9°C° 0 mm 1 mps 761 mmHg 82%
    02:00 +9°C° 0 mm 1 mps 760 mmHg 81%
    03:00 +9°C° 0 mm 1 mps 760 mmHg 81%
    04:00 +9°C° 0 mm 1 mps 760 mmHg 81%
    05:00 +9°C° 0 mm 1 mps 760 mmHg 79%
    06:00 +10°C° 0 mm 1 mps 760 mmHg 78%
    07:00 +11°C° 0 mm 1 mps 759 mmHg 76%
    08:00 +13°C° 0 mm 1 mps 759 mmHg 72%
    09:00 +15°C° 0 mm 1 mps 759 mmHg 67%
    10:00 +16°C° 0 mm 1 mps 759 mmHg 63%
    11:00 +17°C° 0 mm 2 mps 758 mmHg 61%
    12:00 +18°C° 0 mm 2 mps 758 mmHg 58%
    13:00 +19°C° 0 mm 2 mps 757 mmHg 56%
    14:00 +20°C° 0 mm 2 mps 757 mmHg 56%
    15:00 +20°C° 0 mm 2 mps 757 mmHg 56%
    16:00 +20°C° 0 mm 2 mps 757 mmHg 56%
    17:00 +18°C° 0 mm 2 mps 757 mmHg 62%
    18:00 +17°C° 0 mm 2 mps 757 mmHg 69%
    19:00 +15°C° 0 mm 2 mps 757 mmHg 75%
    20:00 +15°C° 0.3 mm 1 mps 758 mmHg 76%
    21:00 +14°C° 0.3 mm 1 mps 758 mmHg 77%
    22:00 +14°C° 0.3 mm 1 mps 759 mmHg 78%
    23:00 +13°C° 0.5 mm 1 mps 759 mmHg 80%
    Show more